星链-35559(STARLINK-35559)

导读 | 豆包AI

STARLINK-35559是美国太空探索技术公司(SpaceX)星链星座的卫星,于2025年10月19日发射,属星链低轨互联网星座组网卫星,延续星链部署节奏,依托卫星组网提供全球覆盖的高速低延迟卫星互联网服务,服务通信、导航等多领域民用与商业场景,进一步扩充了星链星座的在轨规模。

基本信息
目录编号:
66095
目录名称:
STARLINK-35559
国际标识:
2025-236K
轨道中心:
EARTH
卫星名称:
星链-35559
卫星全名:
星链-35559(STARLINK-35559)
卫星状态:
在轨 (已飞行146 天)
发射日期:
2025-10-19 UTC
国别 :
美国 (US)
星等 :
--
轨道信息
数据来源 国际轨道数据 AOE轨道数据
星历时间 2026-03-13T18:55:45+0800
20小时前
查看轨道信息
2026-03-10T02:00:00+0800
4天前
查看轨道信息
半长轴 6853.382km 6853.408km
偏心率 0.0001247 0.0001798
轨道倾角 53.158° 53.160°
近地点辐角 84.538° 61.405°
升交点赤经 86.203° 103.419°
平近点角 275.576° 35.461°
近地点 474.39km 474.038km
远地点 476.1km 476.504km
周期 94.106分钟 94.106分钟
每日圈数 15.301902 15.301814
详细信息
固有亮度:
5
最大亮度:
2.5
卫星平台:
Starlink V1.0
覆盖范围:
全球
运营商:
太空探索技术公司
运营商所在国:
美国
制造商(研发单位):
太空探索技术公司
制造商所在国:
美国
使用方式:
暂无
卫星简介
Starlink 计划是 SpaceX 推出的全球卫星互联网项目,通过发射低轨道卫星,为全球尤其是偏远地区提供高速、低延迟的互联网服务。自 2019 年起,Starlink 已部署数千颗卫星,旨在缩小全球数字鸿沟,推动互联网普及。该项目还为军事、航空等行业提供通信支持,带来广泛经济效益。
2D轨道图
3D轨道图
轨道高度分析图
轨道倾角分析图
轨道综合分析图
查看轨道综合分析图